sat.trackr.live / text

‹ back to catalog

STARLINK-37280

NORAD 68511 · 2026-068D

PAYLOAD ACTIVE UNKNOWN

§ Identity

Operator
Country
US
Launch date
2026-03-30
Launch site
AFETR
Launch vehicle
Mass (kg)
RCS (m²)

Purposes: comms

External: N2YO · Heavens-Above · Gunter

§ Orbital elements

Epoch: 2026-05-25T02:45:35.491104Z

Period
92.94 min
Inclination
53.1587°
Eccentricity
0.0001051
Mean motion
15.49334565 rev/d
Perigee alt
418.0 km
Apogee alt
419.4 km
Semi-major
6,796.8 km
B*
6.1917e-4
RAAN
127.9405°
Arg perigee
84.4444°
Mean anomaly
275.6685°
Rev number
873

§ Raw data

STARLINK-372801 68511U 26068D   26145.11499411  .00034169  00000+0  61917-3 0  99902 68511  53.1587 127.9405 0001051  84.4444 275.6685 15.49334565  8737

JSON: /api/v1/satellites/68511 · /tle

For live sub-satellite position, see the globe view (requires WebGL).

§ Visibility from observer

Set your observer location to see the next 7 days of passes ≥ 10°. The values pass through the URL so the page stays shareable.

No JS? Fill the form by hand. The geolocation button needs JavaScript.